Location: Unspecified
(43.3830°N, 0.0000°E)
Time: 09:36:49
(UTC+00:00)

N. Korean satellite - Pass Details

Date: 30 November 2020
Orbit: 453 x 502 km, 97.2° (Epoch: 16 January)

Event Time Altitude Azimuth Distance (km) Brightness Sun altitude
Rises 04:36:12 0° 29° (NNE) 2,562 10.5 -27.7°
Reaches altitude 10° 04:38:49 10° 50° (NE) 1,685 9.8 -27.2°
Maximum altitude 04:41:18 17° 93° (E) 1,290 9.5 -26.7°
Drops below altitude 10° 04:43:48 10° 137° (SE) 1,691 9.9 -26.3°
Sets 04:46:25 0° 157° (SSE) 2,574 10.6 -25.8°
